Zurück zum Katalog

ONEWEB-0192

AktivKommunikationPO
NORAD 48222·PAYLOAD·🇬🇧 United Kingdom

Gestartet Apr 25, 2021 von Vostochny Cosmodrome

Loading…

Nächste Überflüge (nächste 24 Stunden)

TLE

AktuellSource: CelesTrak SupGP

Epoche: Sep 14, 2026, 18:43 UTC

1 48222C 21031N   26257.78002732 -.00001072  00000+0 -28945-2 0  2574
2 48222  87.8892 271.8352 0001853  90.6045  12.0315 13.14499781    11

Verfolge ONEWEB-0192 in Echtzeit mit AllMySat

Download on the App Store